Wind_Speed
12 11 11 16 20 20 21 22 20 22 20 18 21 25 23 24 21 16 20 22 25 27 30 37 36 40 41 37 37 39 42 43 41 39 35 31 33 37 36 36 34 36 34 33
9 12 12 15 18 19 19 21 20 22 22 18 22 27 31 29 26 21 16 18 20 24 25 36 40 38 40 39 38 38 41 45 48 44 42 41 39 41 38 37 37 37 35 36
9 10 10 14 16 19 19 19 19 19 22 22 24 27 25 24 23 24 22 22 21 20 23 27 34 38 36 39 38 37 40 47 49 50 34 40 46 46 41 37 33 37 38 35
9 12 11 12 14 16 20 20 21 21 20 21 24 30 23 24 24 26 25 25 28 24 21 24 28 34 35 37 35 37 40 45 42 41 40 39 37 40 37 35 33 33 35 35
9 10 10 10 13 14 17 19 21 21 19 19 23 27 23 27 27 28 27 30 21 13 16 21 25 28 33 35 35 37 38 40 42 46 49 47 31 42 38 36 30 29 30 36
8 9 9 10 12 13 15 17 19 19 19 18 22 26 25 28 30 29 30 27 20 4 8 13 18 23 31 34 32 35 33 35 40 41 39 41 35 37 33 36 35 27 26 27
12 9 10 11 11 14 14 16 18 19 21 17 21 24 27 25 29 35 28 26 16 12 9 11 14 21 27 28 25 28 25 26 30 31 36 37 18 33 30 23 25 27 28 30
12 11 12 13 14 16 16 15 17 19 20 18 19 25 29 28 31 33 29 25 14 10 13 10 9 16 20 20 18 18 17 17 20 26 30 50 28 16 12 20 23 25 22 29
12 13 13 13 14 16 17 16 16 18 19 20 20 24 25 29 27 29 30 24 15 11 13 11 7 13 11 10 10 11 11 9 12 14 22 28 20 19 14 12 13 11 7 6
11 12 14 15 16 15 15 17 16 16 17 20 20 19 20 23 25 26 27 23 17 11 14 13 11 11 10 7 5 7 7 6 4 6 8 11 15 13 14 14 20 8 6 12
12 14 13 14 16 16 15 16 16 15 16 16 16 15 17 23 24 21 23 21 19 13 8 9 9 5 4 2 2 3 5 4 3 3 3 6 8 7 8 15 12 12 15 15
9 12 13 14 14 12 12 13 14 16 15 15 15 15 16 17 20 20 18 18 18 13 11 9 9 6 2 2 1 2 3 2 2 4 6 7 9 9 11 14 16 15 12 12
11 11 13 13 13 14 13 15 13 14 14 14 14 14 15 15 15 17 18 14 12 13 12 9 6 4 5 4 3 2 3 3 3 5 7 8 15 16 17 12 13 15 10 9
14 12 11 13 13 14 16 14 15 13 13 12 12 11 13 13 13 13 13 15 9 10 8 8 9 10 8 4 6 3 3 4 5 7 6 8 6 4 10 9 10 10 10 13
16 16 13 12 14 15 17 18 14 14 12 12 12 12 10 12 12 11 10 11 10 10 9 7 8 8 9 6 8 7 5 6 5 3 4 3 2 4 7 9 11 13 16 18
18 17 15 12 13 15 16 17 14 12 12 13 12 11 10 10 10 10 10 9 8 8 7 6 6 6 5 5 5 5 5 5 2 2 4 7 7 8 10 12 14 15 17 19
20 18 17 14 14 14 14 14 14 13 13 13 11 12 10 8 9 9 9 9 9 9 8 7 6 6 6 5 5 7 8 8 9 10 11 11 12 14 16 17 18 19 21 21
23 21 20 19 16 14 15 15 15 15 14 12 11 12 11 10 8 10 9 9 9 10 10 10 9 9 10 10 10 10 11 13 14 15 15 16 16 17 18 19 21 23 23 22
25 24 22 21 19 16 18 17 16 16 16 14 11 13 11 12 10 9 10 10 11 10 10 11 12 12 11 12 12 12 13 13 14 15 16 17 18 19 21 21 21 21 22 22
28 27 27 23 21 18 19 20 18 16 16 16 13 13 13 13 12 13 11 13 12 12 12 12 13 14 14 14 15 15 16 16 16 17 18 19 21 22 22 21 21 20 20 21
32 29 28 29 24 20 21 24 23 18 17 16 16 15 16 14 15 15 13 14 15 13 15 15 16 17 17 17 17 18 19 19 19 19 19 19 20 21 22 22 21 20 20 22
36 34 32 35 29 22 23 24 26 24 20 18 17 18 18 16 16 18 18 17 17 16 16 16 17 19 19 20 20 21 22 23 23 23 23 22 22 22 22 23 22 21 22 22
47 42 38 38 32 28 24 27 30 30 24 20 18 18 19 19 17 18 18 19 19 19 18 17 17 19 20 22 23 23 24 24 25 25 26 24 23 23 23 23 24 22 22 24
48 45 44 43 35 29 30 30 31 31 30 24 24 24 19 21 23 20 20 20 20 21 20 18 17 18 19 20 24 26 26 25 26 27 27 27 24 23 22 23 24 24 23 24
50 49 47 48 40 34 34 35 33 33 34 31 32 31 27 26 25 25 24 22 23 23 22 19 18 19 20 20 25 28 27 26 27 28 29 28 25 24 23 22 23 24 24 25
64 57 53 47 39 43 38 37 37 40 37 31 31 33 33 34 30 24 26 25 24 24 24 24 22 21 23 23 25 28 28 27 27 28 29 28 26 24 23 22 24 25 25 26
Wind_Direction
323 317 327 348 354 353 344 338 341 333 341 338 332 334 333 334 308 304 296 282 266 254 245 239 238 237 233 233 236 233 228 231 238 244 239 232 226 225 233 237 239 243 243 249
324 332 343 354 353 352 340 338 342 335 342 342 334 330 339 343 338 335 315 298 284 268 248 240 235 233 236 231 231 233 227 222 227 230 240 229 229 228 224 224 232 237 241 245
336 342 350 359 352 345 346 339 340 346 346 348 341 349 348 346 337 330 329 320 309 282 253 245 236 232 228 232 231 228 229 222 223 225 219 215 235 231 230 226 232 237 241 246
350 348 352 354 350 346 345 344 346 352 342 354 353 358 351 345 342 341 328 310 303 280 239 235 236 226 221 222 227 227 228 231 227 228 232 231 219 231 230 233 233 241 246 247
355 355 349 350 347 347 346 345 347 349 342 357 1 2 354 355 349 343 337 332 329 282 227 222 226 222 212 216 225 225 229 234 230 228 230 226 236 225 227 232 230 245 244 243
9 3 349 349 345 350 351 348 349 348 351 356 4 3 7 359 360 359 351 359 4 39 176 199 212 207 206 211 218 226 235 237 235 235 240 251 233 221 226 233 232 230 247 249
9 8 357 351 351 346 348 358 353 351 357 0 3 11 13 7 8 12 7 16 32 75 119 156 186 193 201 212 214 225 238 245 250 253 246 243 224 219 220 209 233 222 248 251
9 12 359 358 355 348 349 354 353 354 359 6 4 18 15 13 17 20 20 24 48 76 64 118 154 189 197 211 215 221 239 248 250 248 248 250 240 295 323 223 238 232 266 257
6 14 7 357 355 351 344 349 356 353 357 3 12 18 19 12 11 24 29 33 58 84 70 74 148 161 180 202 220 231 244 257 264 254 266 279 299 309 333 324 314 260 248 258
359 349 357 360 353 349 346 342 350 353 355 358 13 17 15 17 17 20 31 38 51 78 82 85 112 147 170 194 223 247 260 277 293 284 309 305 305 328 328 315 308 283 266 281
351 350 351 346 350 344 341 343 344 346 350 358 7 10 13 26 26 29 33 52 58 64 75 86 109 128 130 143 207 267 272 281 344 335 342 293 285 292 306 309 323 311 291 279
323 341 344 349 349 341 337 340 343 344 346 352 4 3 12 25 29 31 31 40 48 62 70 72 72 69 82 96 39 338 318 332 334 295 282 279 269 273 267 284 284 305 292 268
295 317 344 346 352 353 344 333 345 340 341 344 352 352 359 18 24 29 33 25 41 51 58 56 50 40 2 348 348 320 294 281 252 259 262 262 310 251 252 275 294 283 263 247
265 293 326 340 339 342 353 337 333 336 334 338 343 356 350 357 15 21 25 37 54 46 48 40 21 10 342 358 8 354 287 274 291 295 278 302 307 285 269 264 237 233 241 244
257 276 297 326 335 333 334 341 331 327 330 331 335 342 350 348 357 4 14 24 32 36 42 42 46 30 35 25 14 12 34 17 360 354 358 329 238 237 227 238 241 239 245 247
253 261 277 307 325 329 328 336 334 324 329 327 329 326 339 334 334 344 351 1 9 12 18 20 26 41 40 23 13 11 8 5 357 320 280 275 278 270 263 257 258 257 257 258
251 255 266 281 308 324 317 321 333 328 320 320 319 320 318 318 319 326 335 337 340 343 341 343 343 340 336 333 321 317 316 311 306 303 300 294 287 281 281 281 281 276 270 266
247 254 259 266 278 309 311 307 312 328 330 314 311 314 314 310 307 306 313 316 321 326 325 323 321 318 315 312 308 302 297 297 299 299 298 298 296 295 291 287 283 279 276 272
245 253 258 264 269 286 303 306 310 316 328 323 308 302 305 307 307 293 291 295 298 301 304 307 307 307 306 303 302 301 303 305 305 306 307 308 306 300 294 294 294 288 281 269
244 251 262 266 267 280 297 305 308 302 314 329 333 306 308 307 301 293 302 291 287 287 287 289 292 296 300 302 302 301 299 299 300 303 306 310 310 305 307 301 297 286 276 270
248 252 260 265 270 278 288 293 306 305 301 319 328 329 319 307 295 295 296 289 290 284 279 280 283 288 291 294 296 299 300 301 300 300 300 304 310 309 304 301 297 284 275 275
246 252 254 260 271 273 279 289 300 300 293 296 314 320 324 319 302 296 296 292 289 287 281 279 280 281 286 289 290 291 293 296 298 299 300 302 305 311 303 306 297 287 281 283
243 252 258 259 264 271 278 284 294 295 296 289 297 311 323 324 317 304 289 285 287 289 289 282 278 282 282 285 287 287 288 289 292 295 297 298 299 304 306 303 298 291 282 283
238 243 249 256 261 269 275 285 290 289 294 292 290 294 312 320 320 312 299 284 288 286 284 285 280 278 282 281 284 285 287 289 288 288 290 294 294 295 300 301 301 294 286 283
237 241 245 250 255 266 274 279 281 284 287 287 289 291 302 311 313 315 308 283 273 284 283 282 283 282 283 284 281 284 288 288 289 287 286 286 289 289 293 295 301 300 292 286
237 238 244 252 257 259 267 271 279 288 282 272 270 287 301 307 307 307 306 294 276 274 280 282 283 285 290 292 287 284 284 285 286 288 288 283 284 286 286 289 293 300 295 289
Height
5809 5807 5804 5799 5794 5790 5785 5780 5775 5768 5765 5760 5756 5752 5749 5744 5738 5735 5732 5729 5727 5727 5729 5731 5734 5739 5744 5749 5755 5759 5765 5771 5776 5778 5785 5789 5792 5797 5803 5808 5811 5814 5816 5820
5808 5803 5799 5795 5792 5788 5784 5779 5773 5767 5762 5759 5755 5749 5742 5735 5730 5726 5723 5720 5717 5716 5717 5718 5723 5729 5736 5743 5746 5751 5757 5763 5768 5773 5777 5784 5785 5789 5792 5796 5801 5805 5807 5811
5802 5800 5796 5793 5790 5787 5783 5778 5772 5767 5761 5756 5752 5746 5738 5733 5726 5721 5715 5710 5708 5707 5706 5708 5712 5720 5726 5735 5740 5744 5748 5751 5758 5766 5769 5767 5779 5782 5786 5790 5794 5797 5798 5802
5799 5795 5793 5790 5788 5786 5781 5776 5771 5764 5761 5755 5750 5743 5737 5731 5723 5716 5710 5704 5697 5693 5695 5699 5703 5710 5719 5726 5735 5739 5741 5745 5752 5757 5762 5769 5774 5776 5778 5781 5785 5790 5793 5798
5797 5793 5791 5789 5787 5784 5781 5775 5770 5763 5760 5754 5749 5743 5735 5727 5722 5713 5705 5695 5686 5682 5687 5693 5698 5703 5712 5720 5728 5733 5739 5741 5749 5754 5759 5763 5763 5767 5772 5776 5781 5786 5787 5789
5794 5791 5789 5787 5785 5782 5779 5774 5769 5764 5758 5752 5747 5742 5733 5725 5719 5711 5701 5691 5683 5679 5684 5690 5695 5701 5710 5716 5723 5730 5736 5741 5746 5752 5756 5757 5761 5757 5766 5768 5775 5777 5780 5781
5792 5789 5787 5785 5784 5781 5777 5773 5769 5765 5757 5752 5746 5742 5733 5727 5720 5710 5702 5693 5689 5686 5687 5691 5696 5702 5709 5716 5723 5729 5735 5741 5744 5748 5751 5751 5751 5752 5759 5761 5768 5766 5772 5773
5791 5790 5786 5784 5782 5780 5777 5772 5768 5763 5758 5753 5748 5741 5734 5728 5721 5714 5705 5699 5695 5693 5695 5696 5700 5704 5711 5717 5724 5730 5734 5739 5742 5745 5746 5745 5748 5749 5751 5757 5761 5764 5767 5769
5789 5787 5784 5782 5780 5778 5775 5772 5768 5762 5758 5754 5747 5741 5735 5728 5723 5718 5711 5705 5702 5700 5701 5702 5704 5707 5714 5719 5724 5727 5733 5737 5740 5740 5744 5745 5749 5752 5752 5756 5757 5759 5761 5762
5787 5785 5783 5780 5778 5776 5773 5771 5767 5763 5758 5753 5747 5742 5739 5733 5728 5722 5717 5712 5709 5708 5706 5707 5709 5712 5716 5720 5723 5726 5730 5734 5736 5740 5743 5747 5749 5749 5752 5754 5755 5757 5756 5757
5785 5783 5781 5778 5776 5773 5772 5768 5765 5763 5759 5754 5751 5747 5741 5735 5732 5728 5723 5719 5715 5714 5714 5713 5714 5716 5719 5722 5725 5726 5729 5732 5735 5739 5742 5745 5747 5748 5751 5752 5751 5751 5752 5751
5782 5781 5778 5776 5773 5771 5769 5766 5763 5761 5759 5754 5751 5749 5742 5738 5735 5732 5729 5725 5722 5720 5718 5718 5719 5719 5720 5723 5725 5726 5728 5731 5733 5736 5739 5741 5743 5743 5745 5746 5746 5747 5747 5745
5778 5778 5776 5773 5772 5769 5766 5764 5761 5759 5757 5754 5751 5750 5744 5740 5737 5735 5733 5729 5726 5724 5722 5722 5721 5722 5722 5723 5725 5726 5726 5728 5732 5734 5735 5738 5740 5739 5743 5741 5741 5742 5742 5741
5773 5773 5772 5772 5770 5768 5765 5763 5759 5757 5755 5753 5752 5749 5746 5742 5738 5737 5735 5733 5730 5728 5725 5725 5724 5723 5722 5722 5722 5725 5727 5727 5728 5731 5732 5733 5735 5734 5737 5737 5735 5736 5737 5737
5768 5769 5768 5766 5765 5764 5763 5760 5757 5755 5752 5751 5749 5747 5746 5742 5740 5738 5737 5735 5733 5731 5729 5727 5726 5725 5723 5723 5722 5720 5723 5726 5728 5727 5727 5729 5731 5732 5732 5733 5732 5732 5733 5734
5762 5763 5763 5762 5762 5761 5759 5757 5754 5752 5750 5748 5747 5746 5744 5743 5740 5738 5737 5736 5735 5734 5732 5730 5729 5727 5726 5725 5725 5725 5724 5724 5727 5729 5729 5729 5728 5729 5730 5729 5729 5729 5728 5727
5756 5758 5758 5758 5758 5757 5757 5755 5752 5750 5748 5746 5745 5744 5743 5742 5740 5738 5737 5736 5735 5734 5733 5732 5731 5730 5729 5727 5726 5724 5725 5725 5725 5725 5724 5725 5725 5726 5725 5723 5722 5722 5722 5721
5749 5750 5752 5752 5754 5754 5753 5752 5750 5748 5744 5743 5742 5740 5740 5739 5738 5737 5735 5735 5733 5733 5732 5731 5730 5729 5729 5728 5727 5726 5725 5723 5721 5720 5719 5719 5718 5718 5718 5718 5717 5716 5715 5714
5741 5743 5745 5746 5748 5750 5747 5747 5745 5744 5742 5739 5738 5738 5737 5735 5735 5734 5733 5732 5732 5731 5730 5729 5728 5728 5727 5726 5726 5724 5723 5723 5722 5720 5718 5716 5715 5713 5712 5711 5709 5708 5708 5708
5733 5736 5738 5740 5741 5743 5742 5742 5741 5739 5739 5737 5735 5734 5733 5733 5731 5730 5731 5729 5729 5728 5727 5726 5725 5725 5724 5723 5723 5722 5721 5719 5718 5717 5715 5713 5711 5709 5707 5705 5704 5702 5702 5701
5723 5728 5730 5729 5733 5737 5736 5736 5735 5736 5737 5734 5732 5730 5729 5729 5727 5726 5726 5725 5725 5725 5724 5723 5721 5720 5720 5719 5718 5718 5717 5716 5714 5713 5711 5710 5707 5705 5703 5701 5699 5698 5697 5696
5717 5718 5721 5721 5726 5731 5730 5730 5730 5729 5728 5728 5728 5727 5725 5724 5723 5721 5721 5720 5719 5719 5719 5718 5717 5715 5715 5714 5713 5712 5711 5710 5709 5707 5705 5703 5701 5699 5697 5695 5692 5691 5690 5688
5705 5712 5715 5715 5719 5721 5723 5723 5722 5721 5722 5723 5722 5721 5720 5719 5719 5717 5715 5715 5714 5713 5713 5712 5712 5710 5710 5709 5708 5707 5706 5704 5703 5702 5700 5698 5696 5694 5691 5690 5687 5685 5683 5682
5695 5699 5701 5704 5711 5713 5714 5715 5716 5714 5714 5715 5715 5714 5715 5713 5712 5712 5709 5708 5708 5706 5705 5706 5706 5704 5703 5703 5701 5700 5699 5698 5697 5695 5694 5692 5690 5688 5686 5684 5681 5679 5677 5675
5685 5688 5691 5693 5701 5707 5705 5706 5707 5709 5708 5707 5706 5705 5706 5707 5705 5703 5703 5701 5700 5699 5698 5698 5698 5698 5696 5696 5694 5692 5692 5691 5689 5687 5686 5684 5683 5681 5679 5677 5675 5673 5670 5668
5665 5675 5681 5690 5696 5693 5699 5698 5698 5698 5699 5703 5702 5700 5699 5697 5698 5697 5694 5693 5692 5692 5691 5690 5690 5690 5689 5688 5687 5685 5683 5682 5681 5679 5678 5676 5676 5674 5672 5670 5668 5666 5663 5661